CAPE
87 50 44 20 0 0 0 0 2 0 1 0 0 0 0 0 0 0 0 0 0 0 0 0 0 0 0 0 0 1 2 1 0 0 0 0 0 0
109 49 60 28 6 0 0 0 0 0 1 0 0 0 1 0 0 0 0 0 0 0 0 0 0 0 0 0 1 1 0 0 0 0 0 0 0 0
125 105 101 33 8 1 0 1 0 0 0 0 1 3 2 0 2 1 1 0 1 0 0 0 0 1 2 1 0 0 0 0 0 0 0 0 0 0
142 155 86 45 5 4 3 8 1 0 0 0 2 3 2 1 3 2 3 3 2 4 3 4 4 2 1 0 0 0 0 0 0 0 0 0 0 0
135 108 89 30 0 2 15 1 1 1 1 0 1 3 3 3 5 8 6 3 4 5 4 3 3 2 1 1 2 1 0 0 0 0 0 0 0 0
87 65 43 19 16 15 13 3 0 1 0 1 2 5 7 4 5 4 6 4 6 2 3 3 3 4 4 3 2 0 0 0 0 0 0 0 0 0
6 31 36 25 13 5 2 0 0 1 1 2 2 5 5 7 3 7 10 7 4 3 5 4 3 2 2 1 1 2 0 0 0 0 0 0 0 0
0 0 0 0 0 0 0 0 0 0 2 4 6 6 3 8 4 7 12 7 6 1 4 4 2 3 1 0 0 1 0 0 0 0 0 0 0 0
1 0 0 0 0 0 0 0 0 0 0 0 0 2 5 2 6 6 9 9 3 5 1 6 1 2 1 1 2 0 0 0 0 0 0 0 0 0
0 0 0 0 0 0 0 0 0 0 0 0 0 0 0 4 1 0 4 3 2 2 0 6 1 1 1 0 1 0 0 0 0 0 0 0 0 0
0 0 0 0 0 0 0 0 0 0 0 1 0 0 1 4 2 2 4 1 4 5 1 0 0 0 0 0 0 0 0 0 0 0 0 0 0 0
0 0 0 0 0 0 0 0 0 0 1 1 0 0 0 1 0 0 5 4 0 2 0 0 2 0 0 0 0 0 0 0 0 0 0 0 0 0
0 0 3 1 1 1 1 0 0 7 6 1 1 1 2 1 1 0 0 0 1 0 1 0 2 0 0 0 0 0 0 0 0 0 0 0 0 0
2 5 9 6 5 5 4 3 4 6 6 5 3 5 3 0 0 0 0 0 0 0 1 0 2 0 0 0 0 0 0 0 0 0 0 0 0 0
4 7 10 6 5 3 4 3 4 3 4 3 4 5 4 1 2 1 3 3 2 0 0 0 0 0 0 0 0 0 0 0 0 0 0 0 0 0
4 4 5 3 4 6 3 2 3 4 3 4 4 5 2 2 4 3 2 4 0 0 1 0 1 0 0 0 0 0 0 0 0 0 0 0 0 0
4 5 4 6 10 6 3 2 3 2 3 3 2 3 2 2 2 2 1 2 1 0 0 0 0 0 0 0 0 0 0 0 0 0 0 0 0 0
1 3 3 6 7 8 5 5 2 2 4 3 2 3 3 1 0 0 1 2 2 0 0 0 0 0 0 0 0 0 0 0 0 0 0 0 0 0
1 2 2 2 3 3 4 3 3 3 1 1 1 1 1 1 1 0 1 0 0 0 0 0 0 0 0 0 0 0 0 0 0 0 0 0 0 0
0 0 0 0 0 1 1 2 2 1 1 1 1 0 0 0 0 0 0 0 0 0 0 0 0 0 0 0 0 0 0 0 0 0 0 0 0 0
0 0 0 0 0 0 0 0 0 1 1 0 0 0 0 0 0 0 0 0 0 0 0 0 0 0 0 0 0 0 0 0 0 0 0 0 0 0
0 0 0 0 0 0 0 0 0 0 0 0 0 0 0 0 0 0 0 0 0 0 0 0 0 0 0 0 0 0 0 0 0 0 0 0 0 0
0 0 0 0 0 0 0 0 0 0 0 0 0 0 0 0 0 0 0 0 0 0 0 0 0 0 0 0 0 0 0 0 0 0 0 0 0 0
CIN
-129 -152 -144 -180 0 0 0 0 -35 0 0 0 0 0 0 0 0 0 0 0 0 0 0 0 0 0 0 0 0 0 0 0 0 0 0 0 0 0
-121 -163 -148 -158 -170 0 0 0 0 0 0 0 0 0 0 0 0 0 0 0 0 0 0 0 0 0 0 0 0 0 0 0 0 0 0 0 0 0
-119 -143 -128 -150 -137 0 -2 -30 0 0 0 0 0 0 0 0 0 0 0 0 0 0 0 0 0 0 0 0 0 0 0 0 0 0 0 0 0 0
-113 -100 -131 -136 -143 0 -12 -35 0 0 0 0 0 0 0 0 0 0 0 0 0 0 0 0 0 0 0 0 0 0 0 0 0 0 0 0 0 0
-78 -90 -108 -145 0 -1 -14 -2 0 0 0 0 0 0 0 0 0 0 0 0 0 0 0 0 0 0 0 0 0 0 0 0 0 0 0 0 0 0
-66 -82 -118 -171 -172 -121 -14 -13 0 0 0 0 0 0 0 0 0 0 0 0 0 0 0 0 0 0 0 0 0 0 0 0 0 0 0 0 0 0
-97 -119 -143 -177 -178 -125 -15 -2 0 -15 0 0 0 0 0 0 0 0 0 0 0 0 0 0 0 0 0 0 0 0 0 0 0 0 0 0 0 0
0 0 0 -12 0 0 0 0 0 0 0 0 0 0 0 0 0 0 0 0 0 0 0 0 0 0 0 0 0 0 0 0 0 0 0 0 0 0
0 0 0 0 0 0 0 0 0 0 0 0 0 0 0 0 0 0 0 0 0 0 0 0 0 0 0 0 0 0 0 0 0 0 0 0 0 0
0 0 0 0 0 0 0 0 0 0 0 0 0 0 0 0 0 0 0 0 0 0 0 0 0 0 0 0 0 0 0 0 0 0 0 0 0 0
0 0 0 0 0 0 0 -17 0 0 0 0 0 0 0 0 0 0 0 0 0 0 0 0 0 0 0 0 0 0 0 0 0 0 0 0 0 0
0 0 0 0 0 0 0 0 0 0 0 0 0 0 0 0 0 0 0 0 0 0 0 0 0 0 0 0 0 0 0 0 0 0 0 0 0 0
0 0 0 0 0 0 0 0 0 0 0 0 0 0 0 0 0 0 0 0 0 0 0 0 0 0 0 0 0 0 0 0 0 0 0 0 0 0
0 0 0 0 0 0 0 0 0 0 0 0 0 0 0 0 0 0 0 0 0 0 0 0 0 0 0 0 0 0 0 0 0 0 0 0 0 0
0 0 0 0 0 0 0 0 0 0 0 0 0 0 0 0 0 0 0 0 0 0 0 0 0 0 0 0 0 0 0 0 0 0 0 0 0 0
0 0 0 0 0 0 0 0 0 0 0 0 0 0 0 0 0 0 0 0 0 0 0 0 0 0 0 0 0 0 0 0 0 0 0 0 0 0
0 0 0 0 0 0 0 0 0 0 0 0 0 0 0 0 0 0 0 0 0 0 0 0 0 0 0 0 0 0 0 0 0 0 0 0 0 0
0 0 0 0 0 0 0 0 0 0 0 0 0 0 0 0 0 0 0 0 0 0 0 0 0 0 0 0 0 0 0 0 0 0 0 0 0 0
0 0 0 0 0 0 0 0 0 0 0 0 0 0 0 0 0 0 0 0 0 0 0 0 0 0 0 0 0 0 0 0 0 0 0 0 0 0
0 0 0 0 0 0 0 0 0 0 0 0 0 0 0 0 0 0 0 0 0 0 0 0 0 0 0 0 0 0 0 0 0 0 0 0 0 0
0 0 0 0 0 0 0 0 0 0 0 0 0 0 0 0 0 0 0 0 0 0 0 0 0 0 0 0 0 0 0 0 0 0 0 0 0 0
0 0 0 0 0 0 0 0 0 0 0 0 0 0 0 0 0 0 0 0 0 0 0 0 0 0 0 0 0 0 0 0 0 0 0 0 0 0
0 0 0 0 0 0 0 0 0 0 0 0 0 0 0 0 0 0 0 0 0 0 0 0 0 0 0 0 0 0 0 0 0 0 0 0 0 0
Wind_Speed
18 17 18 19 18 19 16 14 18 23 25 21 24 24 23 22 20 17 16 18 21 18 16 14 11 8 7 6 6 7 8 12 14 15 17 19 19 20
17 17 18 19 19 19 18 17 21 23 26 24 27 26 21 22 21 19 17 17 18 18 15 14 11 10 8 6 7 8 11 13 14 16 17 19 19 20
20 19 19 19 20 20 20 17 21 20 19 31 31 24 26 22 20 19 17 16 16 17 16 15 13 11 9 8 6 8 10 11 14 16 18 20 20 18
22 22 21 21 21 21 18 16 19 20 25 24 30 26 28 23 22 19 18 16 15 15 16 15 14 12 11 8 8 8 11 12 13 16 19 20 19 17
24 23 23 22 20 20 20 19 19 20 21 21 29 28 26 22 23 21 18 16 14 12 11 14 13 10 9 10 11 12 11 12 15 16 18 18 17 16
25 25 24 22 22 22 21 19 18 21 22 18 26 26 24 24 24 23 21 19 17 13 11 11 10 10 11 11 12 10 11 13 15 16 16 16 15 16
26 24 24 24 22 21 23 23 21 18 17 16 20 21 25 24 27 24 23 19 18 17 12 11 10 12 13 12 10 9 10 14 15 15 15 14 14 15
28 26 25 24 25 24 21 20 19 16 14 15 20 22 25 26 26 26 24 23 24 17 14 13 12 13 14 13 10 9 13 14 14 15 15 14 14 15
30 29 27 25 25 26 23 21 17 15 15 14 16 20 24 24 23 26 26 25 26 20 16 16 12 13 13 12 11 12 14 14 15 15 14 14 14 15
30 30 29 26 25 25 24 23 20 17 16 16 17 18 23 24 26 27 25 20 19 18 17 19 14 14 13 13 12 13 14 15 14 14 13 15 15 16
29 28 31 27 26 25 26 25 21 18 17 18 23 19 18 20 22 23 24 22 24 23 20 17 16 14 15 14 13 15 15 14 13 14 13 15 15 14
28 27 31 26 25 24 23 23 21 19 16 18 19 19 19 19 20 26 27 24 22 26 22 18 12 14 20 17 16 15 13 11 12 13 14 15 14 15
28 26 29 25 24 25 24 23 22 18 18 16 14 16 16 19 18 22 23 25 24 25 23 16 13 14 19 17 14 14 11 11 12 14 15 14 14 15
28 24 27 23 22 22 22 18 15 15 15 14 13 14 15 20 22 18 18 19 20 20 16 15 14 13 15 16 16 11 11 12 12 14 14 15 15 15
26 25 22 19 18 17 15 14 15 15 13 12 13 11 12 14 14 15 13 9 8 10 12 16 9 9 12 13 11 10 10 13 12 13 14 15 16 16
17 18 19 17 17 16 16 17 15 13 11 10 8 5 6 9 10 12 12 8 6 9 13 12 8 8 11 10 8 8 11 15 10 13 15 17 17 17
19 20 21 19 18 17 15 14 13 10 8 5 2 2 3 6 7 7 7 9 9 9 8 8 7 7 8 6 10 10 12 12 12 14 16 19 19 18
24 22 23 20 18 14 13 11 10 8 6 4 2 1 3 4 4 3 4 2 2 4 3 1 1 3 7 13 10 8 11 13 13 15 17 21 22 20
25 23 23 22 17 15 12 10 9 7 3 3 2 2 3 3 3 2 1 1 1 1 2 2 4 6 9 12 13 13 12 14 16 18 19 20 23 23
22 23 20 18 16 15 12 9 8 5 4 3 3 3 3 4 3 2 0 0 1 1 3 6 8 9 10 11 13 13 14 15 17 20 21 22 22 23
19 18 16 14 12 10 9 8 6 6 5 4 3 3 3 4 1 0 1 1 1 2 3 7 9 10 10 11 13 14 16 18 18 20 22 24 25 25
16 16 13 10 8 7 6 5 6 4 4 4 3 3 1 1 1 0 1 1 3 4 5 7 9 11 13 13 14 15 18 21 21 21 20 20 23 26
12 12 10 9 6 5 3 3 5 5 5 5 4 4 3 1 1 2 3 4 4 5 6 8 10 12 13 14 16 18 20 23 24 24 21 24 24 23
Wind_Direction
236 238 251 266 272 273 272 273 272 278 272 271 271 258 256 255 247 237 226 230 245 244 245 249 252 252 262 281 301 321 331 339 346 347 349 348 348 348
240 244 249 270 273 274 272 277 275 271 276 273 269 267 254 255 249 246 240 232 236 237 237 238 239 247 259 271 293 312 321 330 338 346 346 345 346 345
242 244 254 266 273 277 276 270 273 268 264 275 273 266 262 249 248 248 246 238 236 230 233 233 236 245 252 261 283 305 311 321 327 337 339 340 343 342
246 250 261 269 271 276 275 267 272 267 270 278 269 263 264 248 244 241 244 244 236 239 235 237 241 245 250 261 287 306 311 323 325 326 332 336 338 341
253 253 262 264 270 273 275 277 277 272 271 272 270 269 268 246 239 245 243 242 244 234 233 244 247 242 251 267 283 296 307 319 325 322 325 331 334 338
256 259 262 263 268 273 278 278 284 284 277 273 268 265 255 247 238 229 235 242 239 246 242 242 248 251 262 277 285 295 305 313 322 324 325 326 330 337
263 261 262 264 267 271 278 281 280 280 275 266 271 261 252 238 231 234 234 234 243 249 238 244 249 260 270 278 283 292 312 316 319 319 320 323 331 337
262 265 267 265 270 273 272 275 279 275 260 263 266 251 246 240 239 227 230 233 246 245 241 248 252 256 265 280 282 294 310 318 318 317 317 321 327 333
261 266 268 267 270 275 275 275 269 260 243 244 243 256 251 232 232 231 230 230 246 232 231 252 250 259 267 277 286 299 307 315 320 317 315 320 325 331
261 264 267 268 270 274 277 278 281 272 242 244 248 246 251 238 232 228 224 240 250 232 246 259 246 260 267 278 284 299 311 311 317 313 316 320 324 328
261 266 265 268 270 274 276 280 281 282 280 266 275 267 257 235 235 235 229 230 248 243 246 260 254 267 281 280 289 298 308 307 308 311 317 320 325 332
261 264 261 267 270 271 276 277 278 281 280 273 274 280 267 245 230 233 219 222 242 251 243 255 224 269 286 287 289 300 306 307 308 314 319 324 329 331
260 257 262 268 269 272 276 276 281 287 290 286 279 277 264 257 250 254 236 243 237 254 234 244 246 266 288 292 289 296 296 307 312 318 325 329 330 331
258 260 261 269 273 274 277 278 282 290 292 291 286 279 267 259 257 250 252 256 255 257 218 252 275 255 276 290 294 287 296 302 311 319 328 331 330 330
260 262 256 266 270 275 276 278 285 288 290 292 290 278 270 259 252 249 249 260 261 244 252 271 274 254 279 290 295 286 297 307 316 323 329 330 331 333
253 254 261 265 269 272 278 284 287 287 289 292 293 280 269 260 252 239 234 244 229 260 282 285 278 265 287 299 300 291 308 315 321 326 328 330 332 332
257 257 262 264 264 266 274 283 286 287 292 298 284 224 231 246 243 226 245 261 257 263 274 288 288 306 320 313 311 306 313 328 332 332 332 329 332 332
257 255 258 264 264 259 262 272 279 280 281 274 261 186 161 165 178 246 267 268 238 261 274 286 275 326 331 338 342 328 330 329 334 334 334 330 330 333
255 256 258 260 264 262 256 255 261 271 253 246 216 185 166 155 149 143 129 115 308 317 324 323 312 306 309 314 329 339 330 331 332 331 331 331 330 331
256 252 254 257 257 256 253 248 242 240 226 205 180 163 150 140 140 156 127 88 31 331 324 320 319 322 321 322 327 331 341 335 332 331 332 334 333 334
257 252 252 249 252 252 246 246 239 232 202 191 188 179 162 130 159 170 1 19 23 349 339 330 333 349 352 348 340 337 339 340 339 335 336 335 335 336
255 247 247 238 241 245 245 240 228 188 168 140 167 149 151 139 195 146 310 347 359 4 355 352 356 352 341 338 338 337 334 336 341 340 338 336 336 335
256 248 247 246 239 221 209 190 202 160 133 123 124 125 116 147 59 19 4 358 344 350 353 351 349 350 348 343 338 337 337 337 337 338 341 345 339 336